[[{"header":{"parameterUnit":"m.s-1","parameterCategory":1,"la1":30.2991,"la2":30.254,"lo1":-89.0895,"lo2":-89.0444,"dy":0.0017,"dx":0.0017,"nx":28,"ny":28,"refTime":"2024-05-14T21:00:00:Z","depth":0,"parameterNumber":2,"parameterNumberName":"U-component_of_WINDS"},"data":[0,0,0,0,0,0,0,0,0,0,0,0,0,0,0,0,0,0,0,0,0,0,0,0,0,0,0,0,0,0,0,0,0,0,0,0,0,0,0,0,0,0,0,0,0,0,0,0,0,0,0,0,0,0,0,0,0,0,2.8753,2.8754,0,2.8812,2.8813,2.8813,2.8721,2.8717,2.8714,2.8711,2.8776,2.878,2.8785,0,0,0,0,0,0,0,0,0,0,0,0,0,2.8565,2.8569,2.8753,2.8754,2.8755,2.8812,2.8813,2.8814,2.8721,2.8717,2.8713,2.871,2.8774,2.878,2.8785,0,0,0,0,0,0,0,0,0,0,0,0,0,2.8638,2.8571,2.8753,2.8715,2.8713,2.8812,2.8813,2.8814,2.8722,2.8717,2.8712,2.8708,2.8772,2.8779,2.8786,2.8926,0,0,2.8808,2.8811,0,0,0,0,0,0,0,0,2.8634,2.8645,2.872,2.8718,2.8715,2.8754,2.877,2.8852,2.8723,2.8719,2.8711,2.8705,2.8773,2.8779,2.8801,2.8929,2.8932,2.8808,2.8813,2.8816,2.8818,0,0,0,0,0,0,0,2.8629,2.8642,2.8777,2.8722,2.8719,2.8697,2.8702,2.8785,2.8772,2.8719,2.8712,2.872,2.877,2.8794,2.8802,2.8933,2.8808,2.8814,2.8819,2.8822,2.918,2.9185,0,0,0,0,0,0,2.8628,2.8638,2.8775,2.8778,2.8662,2.8704,2.871,2.8747,2.8771,2.877,2.8724,2.8715,2.8785,2.8794,2.8804,2.897,2.8816,2.8822,2.8826,2.9175,2.9181,2.9187,0,0,0,0,0,0,2.8624,2.8641,2.8772,2.8707,2.8722,2.8713,2.8755,2.875,2.8774,2.8775,2.8772,2.8751,2.8781,2.8794,2.8896,2.8971,2.8825,2.8832,2.9169,2.9177,2.9184,2.9304,0,0,0,0,0,0,2.8619,2.864,2.8693,2.8708,2.8726,2.8863,2.8759,2.8755,2.8786,2.8775,2.8799,2.8799,2.8778,2.8886,2.8903,2.8978,2.8837,2.9162,2.9173,2.9182,2.9293,2.9315,2.9333,0,0,0,0,0,2.8613,2.8725,2.8696,2.8713,2.879,2.8868,2.8877,2.885,2.8792,2.8846,2.8846,2.8798,2.896,2.8898,2.8916,2.8994,2.9157,2.917,2.9181,2.9284,2.9311,2.9333,0,0,0,0,0,0,2.8719,2.8726,2.8694,2.8814,2.8841,2.8852,2.8918,2.8879,2.8924,2.8913,2.8878,2.8885,2.8995,2.9005,2.8935,2.9132,2.9049,2.9065,2.9121,2.9146,2.9166,2.9162,2.8843,0,0,0,0,0,2.8756,2.8817,2.882,2.8926,2.8941,2.8927,2.896,2.8937,2.8964,2.8975,2.8983,2.9012,2.907,2.9109,2.9161,2.9294,2.9299,2.9357,2.9377,2.9394,2.9408,2.948,2.9507,2.9226,2.9226,2.9226,0,0,2.8834,2.8845,2.8886,2.8947,2.8965,2.903,2.8937,2.901,2.9058,2.8986,2.9083,2.9091,2.9121,2.924,2.9292,2.9251,2.9487,2.9409,2.9422,2.9428,2.9495,2.9522,2.9545,2.9234,2.9233,2.9232,0,0,2.9009,2.9023,2.9113,2.9133,2.9161,2.9151,2.9173,2.919,2.9191,2.9288,2.9235,2.9293,2.9393,2.9417,2.9442,2.9627,2.9585,2.9645,2.9751,2.9822,2.9844,2.9863,2.993,2.9954,2.966,2.966,2.966,0,2.9102,2.9197,2.9164,2.924,2.927,2.9206,2.9297,2.9319,2.9364,2.9386,2.9339,2.9463,2.9479,2.9602,2.9648,2.967,2.9695,2.9643,2.9843,2.9862,2.988,2.9943,2.9968,2.9667,2.9667,2.9666,2.9665,0,2.9311,2.9377,2.9447,2.949,2.9527,2.9611,2.9592,2.9634,2.9608,2.9604,2.9704,2.9721,2.9776,2.9804,2.9779,2.9925,2.9898,2.9848,2.9764,2.9914,2.9973,2.9997,2.9678,2.9675,2.9673,2.9671,0,0,2.9554,2.9578,2.9604,2.9624,2.965,2.9702,2.9783,2.9836,2.9873,2.9907,2.9975,3.0061,3.0014,3.0043,3.0021,3.0083,3.023,3.0025,3.0025,3.0063,3.0392,3.0431,3.0459,3.0202,3.0206,3.021,3.039,0,2.9729,2.9868,2.9841,2.9977,3.0039,2.998,3.0051,3.0076,3.0075,3.0128,3.0127,3.0189,3.0122,3.0139,3.0197,3.0199,3.0295,3.0186,3.0267,3.027,3.0261,3.049,3.0531,3.07,3.0413,3.0417,3.0419,0,2.9951,2.9991,3.0134,3.0151,3.0176,3.024,3.0287,3.0338,3.0366,3.0361,3.0393,3.036,3.0443,3.0358,3.0472,3.0398,3.043,3.0436,3.0442,3.0449,3.0354,3.0504,3.0753,3.0779,3.0455,3.0452,3.045,0,3.0116,3.0206,3.0302,3.0321,3.0343,3.039,3.0402,3.0424,3.0458,3.05,3.0521,3.0573,3.0601,3.0643,3.0625,3.0564,3.0743,3.0656,3.0743,3.0743,3.0783,3.0781,3.1042,3.0803,3.0802,3.0802,3.0801,0,3.0314,3.0403,3.0376,3.0436,3.0535,3.0504,3.0604,3.0609,3.063,3.0691,3.0643,3.0701,3.0673,3.0731,3.0717,3.0815,3.0828,3.0827,3.0823,3.0832,3.0832,3.0853,3.0841,3.0809,3.0807,3.0806,3.0805,0,3.0514,3.05,3.0601,3.0614,3.0619,3.0692,3.0704,3.076,3.0755,3.0833,3.0849,3.0842,3.0907,3.0892,3.0964,3.0955,3.1078,3.1058,3.1068,3.1064,3.1151,3.1143,3.1434,3.1471,3.1208,3.1211,3.1213,0,3.0642,3.0709,3.0729,3.0766,3.0781,3.084,3.0874,3.0847,3.0885,3.0922,3.0975,3.1035,3.1081,3.1188,3.119,3.1245,3.1227,3.1325,3.1235,3.1242,3.1229,3.1226,3.1233,3.1343,3.1346,3.1349,3.1351,0,3.087,3.086,3.091,3.0958,3.1,3.1037,3.1069,3.1103,3.1078,3.1123,3.1188,3.1224,3.1297,3.1358,3.1408,3.1422,3.1384,3.1379,3.1402,3.1412,3.1415,3.1416,3.1118,3.1373,3.137,3.1369,3.1368,3.1367,3.1039,3.1096,3.1119,3.1177,3.1198,3.123,3.1284,3.1285,3.1338,3.1394,3.1375,3.145,3.1477,3.1541,3.1561,3.162,3.1583,3.1616,3.1625,3.1633,3.1644,3.1406,3.1629,3.1628,3.1628,3.1627,3.1627,0,3.1265,3.1277,3.133,3.1377,3.1423,3.1381,3.1415,3.1457,3.1522,3.155,3.1597,3.1672,3.1731,3.1738,3.1794,3.184,3.1824,3.1856,3.1853,3.1857,3.1674,3.1648,3.1868,3.1868,3.1868,3.1868,3.1868,3.1868,3.1389,3.1484,3.1476,3.1582,3.1593,3.1665,3.1688,3.1718,3.174,3.1825,3.1874,3.1877,3.1897,3.1954,3.2008,3.2008,3.2032,3.2071,3.2065,3.1894,3.187,3.1847,3.1823,3.2076,3.2076,3.2243,3.2245,3.2246]},{"header":{"parameterUnit":"m.s-1","parameterCategory":1,"la1":30.2991,"la2":30.254,"lo1":-89.0895,"lo2":-89.0444,"dy":0.0017,"dx":0.0017,"nx":28,"ny":28,"refTime":"2024-05-14T21:00:00:Z","depth":0,"parameterNumber":3,"parameterNumberName":"V-component_of_WINDS"},"data":[0,0,0,0,0,0,0,0,0,0,0,0,0,0,0,0,0,0,0,0,0,0,0,0,0,0,0,0,0,0,0,0,0,0,0,0,0,0,0,0,0,0,0,0,0,0,0,0,0,0,0,0,0,0,0,0,0,0,-0.0299,-0.03,0,-0.0424,-0.0425,-0.0427,-0.0473,-0.0473,-0.0472,-0.0472,-0.0606,-0.0609,-0.0613,0,0,0,0,0,0,0,0,0,0,0,0,0,-0.0106,-0.0109,-0.0299,-0.03,-0.0302,-0.0424,-0.0425,-0.0427,-0.0473,-0.0473,-0.0472,-0.0472,-0.0604,-0.0609,-0.0614,0,0,0,0,0,0,0,0,0,0,0,0,0,-0.0206,-0.011,-0.0298,-0.034,-0.0344,-0.0423,-0.0425,-0.0428,-0.0473,-0.0473,-0.0472,-0.0472,-0.0603,-0.0608,-0.0614,-0.0663,0,0,-0.0632,-0.0635,0,0,0,0,0,0,0,0,-0.0201,-0.0213,-0.0332,-0.0337,-0.0342,-0.0432,-0.0406,-0.0507,-0.0474,-0.0425,-0.0472,-0.0471,-0.0549,-0.0559,-0.0584,-0.0669,-0.0675,-0.0633,-0.0636,-0.0639,-0.0641,0,0,0,0,0,0,0,-0.0194,-0.0208,-0.0348,-0.0334,-0.034,-0.0354,-0.0367,-0.0426,-0.0489,-0.0429,-0.0433,-0.0446,-0.0552,-0.0578,-0.0588,-0.0677,-0.0633,-0.0638,-0.0642,-0.0644,-0.0811,-0.0812,0,0,0,0,0,0,-0.0179,-0.0202,-0.0344,-0.0352,-0.0268,-0.0358,-0.0373,-0.0404,-0.0488,-0.05,-0.0447,-0.0448,-0.0568,-0.0581,-0.0592,-0.0656,-0.0639,-0.0645,-0.0648,-0.081,-0.0811,-0.0812,0,0,0,0,0,0,-0.0175,-0.0191,-0.0339,-0.0278,-0.0298,-0.0362,-0.0396,-0.0407,-0.0434,-0.0502,-0.0514,-0.0462,-0.0568,-0.0584,-0.0645,-0.0661,-0.0647,-0.0653,-0.0809,-0.081,-0.0812,-0.0783,0,0,0,0,0,0,-0.0169,-0.0189,-0.0207,-0.0278,-0.0301,-0.0388,-0.0397,-0.041,-0.0443,-0.0446,-0.0519,-0.0531,-0.0569,-0.0636,-0.0651,-0.0669,-0.0657,-0.0808,-0.081,-0.0811,-0.0783,-0.0783,-0.0784,0,0,0,0,0,-0.0162,-0.0195,-0.0208,-0.0225,-0.0324,-0.0389,-0.0402,-0.0444,-0.0444,-0.0463,-0.0508,-0.0529,-0.0657,-0.0642,-0.0659,-0.0679,-0.0807,-0.0809,-0.0811,-0.0783,-0.0783,-0.0783,0,0,0,0,0,0,-0.0126,-0.0205,-0.022,-0.0277,-0.0325,-0.0397,-0.0422,-0.0443,-0.0494,-0.0495,-0.0547,-0.0563,-0.062,-0.0656,-0.0638,-0.0732,-0.0734,-0.0739,-0.0706,-0.0707,-0.0708,-0.0698,-0.0662,0,0,0,0,0,-0.0124,-0.0168,-0.0236,-0.0279,-0.0303,-0.0358,-0.0388,-0.0416,-0.0469,-0.0491,-0.0539,-0.0592,-0.0644,-0.0678,-0.073,-0.0788,-0.0806,-0.0811,-0.0811,-0.0811,-0.0816,-0.0851,-0.0854,-0.0819,-0.0819,-0.0818,0,0,-0.0122,-0.0171,-0.0195,-0.0273,-0.0315,-0.0361,-0.0375,-0.0424,-0.0459,-0.0499,-0.0559,-0.0596,-0.0659,-0.0719,-0.0748,-0.0751,-0.0829,-0.0814,-0.0813,-0.0818,-0.0853,-0.0856,-0.0859,-0.082,-0.082,-0.0819,0,0,-0.0141,-0.0182,-0.0223,-0.0264,-0.0325,-0.0362,-0.0372,-0.044,-0.0466,-0.0527,-0.0558,-0.0602,-0.069,-0.0734,-0.0768,-0.0804,-0.0826,-0.082,-0.0822,-0.0856,-0.0858,-0.0861,-0.0875,-0.0879,-0.0824,-0.0824,-0.0824,0,-0.0131,-0.02,-0.0242,-0.0288,-0.0323,-0.0359,-0.0402,-0.044,-0.0517,-0.054,-0.0542,-0.0654,-0.0699,-0.077,-0.0779,-0.0805,-0.0819,-0.0812,-0.0854,-0.0857,-0.0861,-0.0875,-0.088,-0.0823,-0.0823,-0.0823,-0.0823,0,-0.0185,-0.0232,-0.0259,-0.0329,-0.0367,-0.0411,-0.0462,-0.0495,-0.052,-0.0557,-0.062,-0.0674,-0.0738,-0.0758,-0.0783,-0.0833,-0.0833,-0.0844,-0.0846,-0.0862,-0.0876,-0.0882,-0.0821,-0.0822,-0.0822,-0.0822,0,0,-0.0185,-0.0278,-0.0287,-0.032,-0.0391,-0.043,-0.0477,-0.0538,-0.0566,-0.0617,-0.0659,-0.0734,-0.0744,-0.0783,-0.0814,-0.0843,-0.087,-0.085,-0.0853,-0.0853,-0.093,-0.0922,-0.0927,-0.0884,-0.0886,-0.0887,-0.0925,0,-0.0214,-0.0298,-0.0337,-0.0405,-0.045,-0.0486,-0.0527,-0.0576,-0.0613,-0.0658,-0.0699,-0.0751,-0.0761,-0.0784,-0.0815,-0.086,-0.0886,-0.0858,-0.0926,-0.0928,-0.0909,-0.0934,-0.0926,-0.0959,-0.0931,-0.0932,-0.0932,0,-0.0259,-0.0309,-0.038,-0.0446,-0.0467,-0.0503,-0.0563,-0.0605,-0.0662,-0.0687,-0.0729,-0.0759,-0.0813,-0.0811,-0.0886,-0.0866,-0.0897,-0.0923,-0.0926,-0.0934,-0.0931,-0.0944,-0.0971,-0.0976,-0.0941,-0.0941,-0.094,0,-0.0253,-0.0338,-0.0391,-0.0419,-0.0497,-0.0522,-0.0556,-0.0612,-0.0647,-0.07,-0.0723,-0.0782,-0.0815,-0.0861,-0.0906,-0.0901,-0.0978,-0.098,-0.1001,-0.1,-0.1016,-0.1014,-0.1048,-0.1035,-0.1034,-0.1034,-0.1034,0,-0.0281,-0.0324,-0.039,-0.0423,-0.0472,-0.0518,-0.0566,-0.0604,-0.0654,-0.0696,-0.0732,-0.0771,-0.0829,-0.0876,-0.0913,-0.097,-0.0985,-0.1008,-0.1017,-0.1005,-0.1002,-0.1026,-0.1025,-0.1036,-0.1035,-0.1035,-0.1035,0,-0.0283,-0.0328,-0.0389,-0.0458,-0.0477,-0.051,-0.057,-0.0605,-0.0643,-0.0696,-0.0712,-0.0772,-0.083,-0.088,-0.0957,-0.0982,-0.1041,-0.1052,-0.1021,-0.1026,-0.1045,-0.1043,-0.1096,-0.1106,-0.1084,-0.1084,-0.1084,0,-0.0298,-0.0331,-0.0404,-0.0434,-0.0467,-0.0515,-0.055,-0.0597,-0.0633,-0.0701,-0.0728,-0.0788,-0.0838,-0.093,-0.0982,-0.1041,-0.1055,-0.1069,-0.1064,-0.1051,-0.1056,-0.1053,-0.1058,-0.1069,-0.1069,-0.1069,-0.1069,0,-0.0321,-0.0342,-0.039,-0.0446,-0.0487,-0.0534,-0.0582,-0.0605,-0.0662,-0.0701,-0.0759,-0.0798,-0.0876,-0.0936,-0.1001,-0.1039,-0.1065,-0.107,-0.1079,-0.1067,-0.1048,-0.1059,-0.1022,-0.1069,-0.1069,-0.1069,-0.1069,-0.1069,-0.0331,-0.0362,-0.0418,-0.0471,-0.0512,-0.0556,-0.0592,-0.0634,-0.0683,-0.0749,-0.0775,-0.0835,-0.0893,-0.0983,-0.1021,-0.107,-0.1074,-0.1086,-0.1089,-0.1091,-0.109,-0.1039,-0.1082,-0.1082,-0.1083,-0.1083,-0.1083,0,-0.0356,-0.0394,-0.0442,-0.0507,-0.0549,-0.0567,-0.0622,-0.0657,-0.0709,-0.076,-0.0808,-0.0877,-0.0935,-0.0992,-0.1054,-0.1082,-0.1096,-0.1097,-0.1096,-0.1105,-0.1082,-0.1069,-0.1085,-0.1085,-0.1085,-0.1085,-0.1085,-0.1085,-0.0375,-0.0429,-0.0457,-0.0533,-0.0571,-0.0628,-0.0658,-0.07,-0.0741,-0.0815,-0.0863,-0.0899,-0.0953,-0.1019,-0.1074,-0.109,-0.1112,-0.111,-0.1129,-0.1107,-0.1106,-0.1105,-0.1093,-0.1114,-0.1114,-0.1147,-0.1147,-0.1147]}]]